York, PA

12:50 AM EDT on May 01, 2017 (GMT -0400)
York

Weather History for KTHV - November, 2013

Change the Weather History Date:

Tuesday, November 12, 2013

  Actual Average Record
Temperature  
Mean Temperature 36 °F -  
Max Temperature 50 °F 63 °F 66 °F (2012)
Min Temperature 21 °F 39 °F 17 °F (2001)
Degree Days  
Heating Degree Days 30    
Moisture  
Dew Point 23 °F    
Average Humidity 60    
Maximum Humidity 82    
Minimum Humidity 36    
Precipitation  
Precipitation 0.00 in - - ()
Sea Level Pressure  
Sea Level Pressure 30.21 in    
Wind  
Wind Speed 8 mph (NW)    
Max Wind Speed 16 mph    
Max Gust Speed 28 mph    
Visibility 10 miles    
Events Rain , Snow    
Averages and records for this station are not official NWS values.
T = Trace of Precipitation, MM = Missing Value Source: NWS Daily Summary

Daily Weather History Graph

Daily Weather History Graph

Search for Another Location

Airport or City:

Trip Planner

Search our weather history database for the weather conditions in past years. The results will help you decide how hot, cold, wet, or windy it might be!

Date:

Astronomy

Nov. 12, 2013 Rise Set
Actual Time 6:49 AM EST 4:53 PM EST
Civil Twilight 6:20 AM EST 5:22 PM EST
Nautical Twilight 5:47 AM EST 5:54 PM EST
Astronomical Twilight 5:16 AM EST 6:26 PM EST
Moon 2:06 PM EST (11/12) 1:37 AM EST (11/12)
Length of Visible Light 11h 01m
Length of Day
10h 04m
Waxing Gibbous, 76% of the Moon is Illuminated
Nov 12
Waxing Gibbous
Nov 17
Full
Nov 25
Last Quarter
Dec 2
New
Dec 9
First Quarter

Hourly Weather History & Observations

Time (EST) Temp. Windchill Dew Point Humidity Pressure Visibility Wind Dir Wind Speed Gust Speed Precip Events Conditions
12:53 AM 50.0 °F - 28.9 °F 44% 30.00 in 10.0 mi Calm Calm - N/A   Overcast
1:53 AM 48.0 °F - 30.0 °F 50% 30.00 in 10.0 mi Variable 3.5 mph - N/A   Overcast
2:53 AM 48.0 °F - 33.1 °F 56% 29.99 in 10.0 mi NW 3.5 mph - N/A   Overcast
3:53 AM 48.0 °F - 36.0 °F 63% 30.00 in 10.0 mi NW 10.4 mph 17.3 mph 0.00 in Rain Light Rain
4:53 AM 44.1 °F 36.8 °F 35.1 °F 71% 30.05 in 10.0 mi NW 16.1 mph 27.6 mph 0.00 in   Overcast
5:28 AM 41.0 °F 33.1 °F 32.0 °F 70% 30.08 in 10.0 mi North 15.0 mph 21.9 mph N/A   Overcast
5:53 AM 37.0 °F 31.0 °F 32.0 °F 82% 30.12 in 10.0 mi NNW 8.1 mph 20.7 mph 0.00 in Rain Light Rain
6:18 AM 37.4 °F 29.3 °F 30.2 °F 75% 30.12 in 10.0 mi North 12.7 mph 20.7 mph 0.00 in   Overcast
6:26 AM 37.4 °F 30.3 °F 30.2 °F 75% 30.13 in 10.0 mi NNW 10.4 mph 21.9 mph 0.00 in   Overcast
6:40 AM 37.4 °F 29.3 °F 30.2 °F 75% 30.13 in 10.0 mi North 12.7 mph - 0.00 in   Overcast
6:49 AM 35.6 °F 25.9 °F 30.2 °F 81% 30.15 in 10.0 mi North 16.1 mph 23.0 mph 0.00 in Rain Light Rain
6:53 AM 35.1 °F 25.2 °F 30.0 °F 82% 30.17 in 10.0 mi North 16.1 mph 23.0 mph 0.00 in Snow Light Snow
7:24 AM 33.8 °F 23.9 °F 28.4 °F 81% 30.18 in 7.0 mi North 15.0 mph 23.0 mph 0.00 in Snow Light Snow
7:53 AM 34.0 °F 26.6 °F 24.1 °F 67% 30.21 in 10.0 mi North 9.2 mph 16.1 mph 0.00 in   Overcast
8:53 AM 34.0 °F 27.2 °F 21.9 °F 61% 30.24 in 10.0 mi NNW 8.1 mph - N/A   Scattered Clouds
9:53 AM 35.1 °F 26.4 °F 19.9 °F 54% 30.25 in 10.0 mi NW 12.7 mph 18.4 mph N/A   Clear
10:53 AM 36.0 °F 28.0 °F 19.0 °F 50% 30.26 in 10.0 mi NNW 11.5 mph 20.7 mph N/A   Clear
11:53 AM 37.0 °F 29.8 °F 19.0 °F 48% 30.25 in 10.0 mi NNW 10.4 mph 18.4 mph N/A   Mostly Cloudy
12:53 PM 37.0 °F 28.1 °F 16.0 °F 42% 30.25 in 10.0 mi NNW 15.0 mph 23.0 mph N/A   Overcast
1:53 PM 37.0 °F 28.5 °F 15.1 °F 41% 30.26 in 10.0 mi North 13.8 mph 19.6 mph N/A   Clear
2:53 PM 37.9 °F 30.5 °F 14.0 °F 38% 30.27 in 10.0 mi North 11.5 mph 17.3 mph N/A   Clear
3:53 PM 37.0 °F 29.3 °F 12.0 °F 36% 30.29 in 10.0 mi NNW 11.5 mph - N/A   Clear
4:53 PM 35.1 °F 29.3 °F 10.9 °F 37% 30.32 in 10.0 mi NW 6.9 mph - N/A   Clear
5:53 PM 33.1 °F 26.9 °F 10.9 °F 40% 30.33 in 10.0 mi NW 6.9 mph - N/A   Clear
6:53 PM 28.9 °F 21.9 °F 14.0 °F 54% 30.35 in 10.0 mi NW 6.9 mph - N/A   Clear
7:53 PM 25.0 °F 20.7 °F 14.0 °F 63% 30.37 in 10.0 mi West 3.5 mph - N/A   Clear
8:53 PM 23.0 °F 18.4 °F 15.1 °F 72% 30.38 in 10.0 mi WSW 3.5 mph - N/A   Clear
9:53 PM 21.0 °F 16.2 °F 16.0 °F 81% 30.39 in 10.0 mi West 3.5 mph - N/A   Clear
10:53 PM 28.0 °F 24.2 °F 15.1 °F 58% 30.39 in 10.0 mi West 3.5 mph - N/A   Scattered Clouds
11:53 PM 28.0 °F 24.2 °F 17.1 °F 63% 30.40 in 10.0 mi West 3.5 mph - N/A   Overcast